User: anonymous   Login
Location: Shenandoah County Park
(38.9356°N, 78.4524°W)
Time: 23:53:32
(UTC-04:00)
Language:

AO-92 - Orbit

View from above orbital plane
View from above orbital plane
View from above satellite
View from above satellite

Ground track
Ground track

The orbit data is extracted from the following two-line orbital elements,

1 43137U 18004AC  23087.73354272  .00037871  00000-0  93972-3 0  9993
2 43137  97.3337 166.3745 0006628  79.5526 280.6467 15.40240763289891
Epoch (UTC): 28 March 2023 17:36:18
Eccentricity: 0.0006628
inclination: 97.3337°
perigee height: 441 km
apogee height: 450 km
right ascension of ascending node: 166.3745°
argument of perigee: 79.5526°
revolutions per day: 15.40240763
mean anomaly at epoch: 280.6467°
orbit number at epoch: 28989

The dashed part of the orbit path shows where the satellite is in the earth's shadow,  

DLR